Wind_Speed
17 17 16 16 16 16 17 17 16 15 15 16 16 16 16 16 16 16 16 17 18 19 20 20 21 22 23 21 20 19 21 23 23 23 24 25 30 33 34 34 34 32 31 32 33 33 33 32 30 29 28 27 26 25 24 24 23 22 22 21 21 20 19 19 19 19 18 18 17 16 15 14 13 12 12 11 11 10 10 9 7 7 7 7 7
14 14 14 15 15 16 16 16 15 15 15 16 16 16 16 16 16 16 16 17 18 19 19 20 20 21 22 22 21 20 20 23 24 24 22 21 25 30 33 35 36 35 33 32 33 33 33 33 33 32 30 29 28 27 26 26 25 24 24 23 22 21 21 20 20 19 19 18 17 16 15 15 14 14 13 13 13 12 12 11 10 9 8 8 8
12 12 13 14 14 15 16 16 16 15 16 16 16 16 17 17 17 17 17 17 18 18 18 19 19 20 21 21 20 20 20 23 24 24 23 22 22 25 29 33 35 37 35 33 32 33 33 34 34 34 33 31 30 29 28 28 27 26 26 25 24 23 22 22 21 21 20 19 18 17 16 16 15 15 15 15 15 14 14 13 13 12 11 10 9
11 11 12 13 14 15 15 16 16 16 16 17 16 16 16 17 17 17 17 18 18 18 18 18 18 18 19 19 19 19 20 22 24 25 25 24 24 24 26 29 33 36 37 35 33 33 33 34 34 35 34 33 32 31 30 29 29 28 28 27 26 25 24 24 23 22 21 20 19 18 18 17 17 17 17 17 17 16 16 16 15 14 14 13 12
11 11 12 13 15 15 15 16 16 16 17 17 17 16 17 17 17 17 18 19 19 18 18 18 18 18 18 18 18 18 19 20 21 23 24 25 25 25 25 27 30 33 35 36 35 33 32 33 33 34 35 34 33 33 32 31 31 30 29 29 28 27 26 26 25 24 23 22 21 20 20 19 18 19 19 19 19 19 18 18 17 17 16 15 14
11 12 12 13 13 14 15 16 16 16 17 16 16 16 17 17 17 17 18 19 19 18 18 19 19 18 17 17 17 17 17 18 19 21 23 24 25 25 26 27 28 30 33 36 36 35 33 32 32 33 34 34 34 34 35 34 33 32 31 30 30 29 28 28 27 27 25 24 23 22 21 21 21 21 21 21 21 21 21 20 19 19 18 18 17
12 12 12 12 12 14 14 15 16 17 17 16 16 16 16 17 18 18 18 19 19 18 18 18 19 19 17 16 16 16 16 16 17 19 21 23 24 25 26 27 27 29 31 34 36 35 33 32 32 32 33 33 34 35 36 36 35 33 33 32 32 31 30 30 29 29 28 26 25 24 23 23 23 24 23 23 23 23 23 22 22 21 21 20 20
13 13 13 12 13 14 15 15 17 18 17 16 16 16 16 17 18 18 19 19 19 19 18 18 19 19 18 17 16 15 16 17 17 17 19 20 23 25 27 28 27 28 29 31 34 36 35 33 32 32 32 32 33 34 36 36 36 35 34 34 33 33 32 32 31 31 30 28 27 26 25 25 25 26 25 25 25 25 24 24 24 23 23 22 22
14 14 13 13 15 15 15 15 15 17 18 17 17 17 17 17 17 17 17 18 18 18 18 19 19 19 19 17 16 16 16 18 19 19 19 20 21 23 26 29 29 28 29 31 33 36 37 36 34 33 32 32 32 33 34 35 35 36 36 35 35 34 34 34 33 33 32 30 29 28 27 26 26 26 26 26 25 24 24 24 24 24 24 25 24
13 13 13 14 15 14 15 16 15 16 18 17 17 16 17 17 17 16 16 16 17 18 18 19 19 19 19 18 17 17 18 19 20 20 20 21 22 22 23 26 29 30 30 31 32 35 39 39 37 35 33 33 32 32 33 33 34 35 37 37 36 35 35 35 35 34 33 32 31 30 29 28 27 26 27 27 26 25 25 24 24 25 25 26 26
12 13 13 13 14 14 15 16 15 16 18 18 17 16 17 17 17 16 16 16 16 17 18 19 19 18 19 19 18 18 19 20 20 20 21 21 23 22 21 22 26 29 30 29 29 32 37 41 41 38 36 35 34 33 32 32 33 34 36 37 37 36 35 36 36 36 35 34 33 32 30 29 28 28 28 28 28 27 27 27 26 26 27 27 27
13 13 13 12 13 13 14 14 14 16 19 19 17 16 16 16 16 16 16 16 16 16 17 18 18 18 19 19 19 19 19 20 20 20 20 21 22 22 21 20 21 23 25 26 28 30 33 38 43 43 40 37 35 33 32 32 32 32 33 35 36 37 36 36 36 36 35 35 34 33 32 31 30 29 29 30 29 29 29 29 29 29 28 28 27
13 13 13 13 13 13 13 13 14 17 19 18 17 16 16 16 16 17 17 17 16 16 17 18 19 19 20 20 20 19 19 19 19 20 19 19 21 21 21 20 19 19 21 23 25 28 30 34 40 44 43 40 37 35 33 32 32 31 30 32 33 35 35 35 36 36 36 35 35 34 32 31 30 30 30 30 30 30 31 31 31 30 29 28 28
14 14 14 14 14 14 14 14 15 17 18 17 17 17 16 17 18 18 18 19 18 18 18 18 19 20 20 20 20 20 19 18 18 18 19 19 19 20 19 19 19 18 19 19 19 22 26 30 35 42 44 42 39 37 35 33 32 30 29 29 31 32 33 34 35 35 35 35 35 34 32 31 30 30 30 30 31 31 31 31 30 30 29 29 28
14 14 14 14 14 15 15 16 17 18 19 18 18 18 19 19 20 20 20 20 20 19 19 19 19 19 19 20 19 20 20 19 18 17 17 18 18 19 18 17 18 18 18 17 16 17 20 24 30 37 42 43 41 39 36 34 32 30 29 29 30 30 30 32 33 33 33 34 35 34 32 31 30 29 29 30 31 32 32 31 30 29 29 28 28
14 14 13 14 14 15 16 18 19 20 20 20 20 21 21 21 21 22 22 22 21 20 19 19 19 19 19 19 19 20 20 19 18 17 16 17 18 19 18 17 18 19 19 18 18 17 17 18 23 30 38 43 43 41 39 36 34 32 30 30 30 30 30 31 31 31 32 33 35 34 33 31 30 29 29 30 31 32 32 31 30 29 28 28 28
14 13 13 13 14 15 16 18 20 21 21 22 23 23 23 23 23 23 23 22 22 20 20 20 19 19 20 20 20 20 20 19 19 19 18 17 18 19 19 18 18 19 19 20 19 17 16 17 19 22 30 39 43 44 42 39 37 34 32 31 31 30 30 31 31 31 32 33 33 32 31 30 30 29 30 31 32 32 31 31 30 29 28 27 27
13 13 13 13 14 14 15 17 18 20 21 22 23 23 24 24 23 23 23 22 22 21 20 20 20 20 20 21 21 21 20 20 20 20 19 19 18 19 19 19 19 20 20 20 19 17 18 21 21 20 23 31 39 43 45 43 40 38 35 34 33 32 32 32 31 31 33 33 32 31 31 30 29 29 30 31 32 32 31 31 30 29 28 27 27
13 12 12 13 13 14 14 16 17 18 20 21 22 22 23 23 23 23 22 22 22 21 21 21 21 21 21 22 22 22 22 21 21 21 20 20 20 19 19 19 20 20 20 19 18 19 21 22 22 24 23 23 28 36 42 45 43 41 39 37 35 34 34 33 33 33 33 34 33 32 32 31 29 28 29 30 31 31 31 31 31 30 28 28 28
14 13 12 12 13 13 14 15 16 17 18 19 19 20 20 20 21 21 22 22 21 22 22 21 21 21 21 22 23 23 23 23 22 22 21 21 21 20 20 20 19 20 20 20 18 19 20 18 16 17 19 19 22 27 34 42 46 44 42 40 39 37 36 35 34 34 34 34 34 33 32 32 31 29 30 31 30 31 31 31 31 30 29 29 28
14 14 13 12 12 13 13 14 15 16 16 16 17 17 18 18 19 20 21 21 22 22 23 23 23 22 22 22 23 24 24 23 23 22 23 23 23 21 21 20 20 19 20 20 20 19 20 19 17 15 14 15 17 19 24 33 41 45 45 44 42 40 39 37 36 35 35 35 35 35 33 32 31 30 31 32 31 31 31 30 30 30 31 31 30
14 14 14 13 12 12 13 13 14 15 15 15 15 16 17 18 19 20 21 21 22 23 23 24 24 23 23 22 23 24 25 25 24 24 24 24 24 23 22 21 21 22 21 21 21 20 19 20 21 19 16 14 14 16 18 22 30 37 43 44 44 44 41 40 39 38 37 37 36 36 34 34 33 31 32 32 33 33 34 33 33 33 33 32 32
13 14 14 13 13 12 12 12 13 14 15 15 15 16 17 18 19 20 21 21 22 23 23 24 24 23 23 23 23 25 25 25 25 25 25 25 25 25 25 25 25 25 25 24 23 22 21 22 22 21 19 17 17 18 19 20 22 26 33 39 42 43 43 43 42 41 40 39 38 37 36 36 35 33 34 34 34 35 36 36 37 37 36 34 34
12 13 14 13 13 12 11 12 12 13 14 14 15 15 16 17 18 19 20 20 21 22 22 22 23 22 22 22 23 24 25 25 26 26 26 26 26 26 27 28 27 27 26 26 25 24 24 24 24 23 22 21 21 21 21 22 21 22 26 31 35 39 43 45 43 41 42 42 41 39 39 38 38 37 37 37 37 37 38 39 39 39 39 38 38
12 12 13 13 12 12 12 11 12 12 12 13 13 14 14 15 16 17 18 19 20 20 21 21 21 21 21 21 21 22 23 25 26 26 26 26 26 27 27 27 27 26 26 26 26 26 25 26 25 25 25 24 23 23 23 23 22 22 22 25 29 33 38 42 41 39 40 42 43 42 42 41 40 41 41 41 40 38 38 40 41 42 41 40 41
12 12 13 12 12 11 11 11 12 12 12 11 11 12 13 14 15 16 17 18 18 19 19 20 20 21 21 21 21 21 22 23 25 26 26 26 26 26 27 26 26 25 24 25 25 25 25 25 25 25 25 25 24 24 24 24 23 22 21 22 25 27 29 33 35 33 32 35 39 40 42 40 39 40 42 43 43 41 41 42 43 44 44 44 45
13 13 13 13 11 10 10 11 11 12 12 12 11 11 12 12 13 14 15 16 17 17 18 18 19 19 20 20 20 20 21 22 23 24 25 25 25 25 25 25 25 24 23 23 23 24 24 24 24 24 24 24 24 24 24 24 23 22 21 22 24 26 27 29 30 29 29 33 37 39 40 39 38 39 40 41 43 44 45 46 46 46 46 47 48
15 14 14 14 12 11 10 11 11 12 12 12 13 12 12 11 11 12 12 13 14 15 16 17 17 18 18 19 20 20 20 21 22 23 24 24 24 24 24 24 24 23 22 21 21 22 22 22 22 22 22 22 22 23 24 24 24 23 22 23 24 25 26 29 31 32 33 35 37 39 39 40 41 42 41 41 42 42 43 43 44 44 43 44 46
15 15 16 15 14 13 12 11 12 12 12 12 12 12 12 12 12 12 12 12 13 13 14 15 15 16 17 17 18 19 20 20 21 21 22 22 22 22 23 22 22 21 21 20 20 21 21 22 21 21 21 21 22 22 23 23 23 23 22 23 25 25 25 27 30 32 33 33 34 36 37 38 40 41 41 39 38 37 37 37 38 38 38 39 40
15 15 16 16 17 16 15 13 13 13 13 12 12 12 12 13 13 14 14 13 13 13 13 14 15 15 15 16 16 17 18 19 19 19 20 20 20 20 20 20 19 19 19 19 18 18 19 20 20 20 20 20 20 21 22 23 23 23 22 23 24 25 25 25 26 28 29 30 32 34 36 37 37 38 38 37 36 35 35 36 36 37 38 39 40
16 16 16 17 17 18 17 16 15 13 13 13 13 12 12 12 13 14 14 15 15 14 14 14 14 15 16 16 16 16 17 18 18 18 18 18 18 18 18 17 17 16 16 16 15 15 16 17 17 17 18 18 18 19 20 21 22 22 22 22 23 23 24 24 25 26 27 28 29 31 33 35 36 37 37 38 37 37 37 37 37 38 39 39 40
17 17 17 17 17 17 17 16 15 14 13 13 13 13 13 13 13 13 14 14 15 15 15 15 15 16 16 16 17 17 17 18 18 18 18 17 17 17 17 17 16 15 15 15 14 13 13 14 15 15 15 15 16 17 18 18 20 20 21 21 21 22 22 23 24 24 25 26 27 28 29 30 31 32 34 35 35 34 34 34 34 34 35 35 37
16 16 16 16 16 17 16 16 15 14 14 14 14 14 15 15 15 14 14 14 15 15 16 16 16 17 17 17 18 18 18 18 18 18 18 18 18 17 17 17 17 16 16 15 15 14 14 13 14 14 15 15 15 16 16 17 17 18 19 19 19 20 20 21 22 22 23 24 24 25 25 25 25 26 27 28 29 29 29 30 30 29 30 30 31
18 16 16 16 16 16 16 16 16 16 15 15 15 15 16 16 16 16 15 15 15 16 16 16 17 17 17 18 18 19 19 19 19 19 18 18 18 18 18 18 18 17 17 16 16 16 16 15 15 15 16 16 16 16 17 17 17 18 18 19 20 20 20 21 22 22 22 23 23 23 23 24 24 24 24 25 26 26 27 28 28 28 28 28 28
22 19 17 17 17 17 16 15 15 16 16 16 16 17 17 17 17 17 16 16 16 17 17 17 17 17 17 18 18 19 19 20 20 20 19 19 19 19 19 18 18 18 18 17 17 17 17 17 17 17 17 18 18 18 19 19 19 19 20 20 21 21 22 22 23 23 24 24 24 24 25 25 25 25 26 26 27 27 28 28 29 29 29 29 28
22 21 19 19 18 18 18 18 19 19 19 19 19 19 20 19 19 19 19 19 19 18 19 19 19 19 19 18 18 18 19 20 20 20 21 20 20 20 20 20 19 19 19 18 18 18 18 17 18 18 18 19 19 19 20 21 21 22 22 23 23 24 24 24 25 25 26 26 26 27 27 27 28 28 28 29 29 30 30 30 31 31 31 31 31
22 22 22 22 21 20 21 22 23 24 23 22 22 23 23 22 21 21 21 21 21 20 20 20 21 21 21 21 20 20 20 20 20 21 21 21 21 21 21 20 20 20 19 19 18 18 18 18 18 18 18 19 19 20 20 22 23 24 25 25 26 27 27 28 28 28 29 29 29 29 29 30 30 31 31 32 32 32 32 33 33 33 33 33 33
20 21 22 23 22 20 20 20 21 23 24 23 24 24 24 24 24 23 23 23 23 22 22 22 23 23 23 23 23 23 22 22 22 22 22 22 22 22 21 21 20 20 20 20 20 19 19 19 19 19 19 20 20 21 21 21 22 23 24 26 27 28 29 30 31 31 32 32 32 32 32 32 32 33 33 34 34 35 35 35 36 36 36 36 36
22 21 22 23 24 23 22 21 20 22 24 24 25 26 25 24 25 25 24 25 25 24 24 24 24 25 25 26 26 26 26 25 24 24 24 24 24 23 23 23 23 22 22 22 22 22 22 22 22 22 22 23 23 24 24 23 24 24 25 26 27 28 28 29 31 32 32 33 34 34 34 34 34 35 35 36 36 37 37 38 38 38 39 39 39
27 26 26 27 28 27 26 25 25 26 26 26 26 27 27 26 26 26 27 28 28 28 27 26 27 27 28 28 29 29 29 28 27 27 27 27 26 26 26 26 26 26 26 25 25 25 25 26 25 25 26 27 27 28 28 28 28 28 28 28 29 30 31 31 32 32 33 33 34 34 35 35 35 36 36 37 38 38 38 39 40 41 41 41 41
28 28 27 27 28 28 28 29 29 29 29 28 28 27 27 28 28 29 29 30 30 30 30 29 29 30 30 31 31 32 31 31 31 31 32 32 31 30 30 30 30 30 30 29 29 29 29 29 30 30 30 31 31 32 33 33 33 33 33 33 33 33 34 35 36 37 36 36 36 36 36 36 36 36 37 38 39 39 39 40 41 42 43 43 43
30 30 29 30 31 32 31 31 31 31 31 31 31 30 29 30 31 32 32 33 32 33 33 32 32 33 34 35 35 35 34 33 33 34 35 36 36 36 35 34 34 34 34 33 32 32 32 33 34 34 34 35 35 35 35 35 36 37 37 37 37 37 38 38 39 41 42 41 40 39 40 40 39 39 39 39 40 40 41 41 42 43 43 44 45
34 34 35 36 35 35 34 34 34 34 33 33 33 32 32 33 33 34 34 35 34 34 35 34 34 36 38 40 40 40 39 38 37 37 38 38 40 41 41 39 38 38 38 36 35 35 36 37 38 38 38 38 38 38 37 37 37 38 38 39 40 40 41 41 42 44 46 47 45 43 43 44 45 44 44 44 44 43 43 43 44 44 45 45 46
35 35 36 36 35 35 35 35 35 35 34 34 34 34 34 35 35 36 37 37 37 37 37 37 37 38 39 41 42 42 42 42 42 42 41 41 42 43 44 43 41 41 41 40 39 40 41 41 42 42 42 41 41 42 42 41 40 41 41 42 42 43 44 45 45 46 48 50 49 47 45 46 48 48 47 48 49 48 47 47 47 47 47 47 47
35 35 35 35 34 33 33 34 35 35 35 34 34 35 36 36 37 37 38 39 40 40 40 40 40 41 41 42 42 42 42 43 44 44 44 44 44 43 43 42 41 42 44 45 45 45 46 46 46 47 46 46 46 46 46 46 46 45 45 46 47 47 47 48 48 48 50 52 52 50 48 49 50 50 50 51 52 52 52 52 52 51 50 50 50
37 37 37 36 35 34 34 35 36 36 37 36 36 37 38 39 39 39 40 41 41 42 42 42 42 43 44 44 44 44 44 45 46 46 46 47 46 44 43 42 43 46 50 51 51 52 52 53 52 51 51 51 50 50 50 50 51 51 51 51 51 52 52 52 52 52 54 55 55 54 53 54 55 54 53 54 55 54 54 55 55 55 55 54 54
40 39 38 37 37 37 38 38 39 40 40 41 41 41 41 41 42 42 42 42 42 42 43 44 44 45 46 46 47 47 47 48 49 49 49 50 50 49 49 49 50 52 54 55 56 57 57 56 56 55 55 54 54 54 55 55 56 57 57 56 56 56 56 56 56 58 59 59 59 57 55 57 59 59 57 58 58 57 57 57 57 57 57 57 58
41 40 39 39 39 40 41 42 43 43 44 45 45 45 44 43 42 43 43 43 43 43 43 44 45 46 47 48 49 50 50 51 51 52 52 53 54 54 54 54 55 57 58 58 59 59 58 58 58 58 58 58 58 58 59 60 60 60 60 60 60 60 59 58 59 61 62 63 63 61 58 58 60 60 59 60 59 59 59 59 59 59 59 60 60
43 42 42 42 42 43 44 45 46 46 47 48 48 48 47 45 43 43 44 44 44 44 44 44 45 46 47 48 49 51 52 52 52 52 53 54 54 54 55 55 56 57 58 59 59 59 59 60 60 60 60 60 60 60 61 61 61 61 61 61 61 61 61 60 60 61 63 65 66 65 62 60 60 60 59 60 60 59 60 61 61 62 62 62 62
46 45 45 45 46 47 47 47 48 48 48 49 50 51 50 48 46 45 44 44 44 44 44 45 45 45 46 47 49 50 51 52 52 53 53 54 54 54 54 55 55 56 56 57 58 59 59 60 60 60 60 60 60 61 61 61 61 61 61 61 61 62 61 61 60 60 61 63 65 65 64 62 61 61 60 60 60 60 60 61 62 62 63 64 64
48 48 48 49 51 51 50 49 49 50 50 51 51 51 51 50 49 48 47 46 45 45 44 45 45 45 46 47 48 49 50 51 51 52 53 54 54 55 55 56 56 56 56 57 58 58 59 59 60 60 60 61 61 61 61 61 62 62 62 62 62 63 62 62 62 61 61 62 64 65 64 63 63 63 62 61 61 61 62 62 62 62 63 64 65
Wind_Direction
270 266 265 264 264 264 264 263 260 256 253 253 253 255 256 257 255 253 252 252 252 253 254 254 253 250 249 245 239 230 226 231 236 242 248 244 233 229 230 232 234 237 239 240 242 243 243 242 241 242 244 244 244 244 244 245 245 245 243 241 238 234 231 230 231 233 234 236 239 241 244 248 251 254 256 259 262 265 269 273 277 282 289 293 296
268 265 264 262 261 259 257 257 255 251 249 250 251 253 256 257 257 255 254 254 253 254 255 256 256 254 253 250 247 240 234 234 238 242 247 248 241 234 233 233 235 236 238 239 240 242 243 243 242 242 243 244 245 245 245 245 245 246 245 244 242 239 235 232 231 232 234 236 238 240 242 245 249 254 257 260 262 264 268 270 273 276 279 283 286
264 263 262 260 258 256 253 252 251 249 247 248 250 253 255 257 258 257 255 254 255 257 259 259 258 255 253 250 248 247 242 239 240 240 240 242 243 240 236 236 237 237 237 238 239 240 242 243 243 242 242 243 244 245 245 245 245 246 246 246 244 242 239 236 234 233 234 235 237 239 241 244 248 252 256 260 262 264 267 269 271 273 275 277 280
259 258 257 255 253 252 251 250 249 248 245 246 248 250 253 254 255 255 255 255 256 258 261 261 259 255 252 250 248 247 244 242 241 241 240 239 238 238 238 238 240 240 239 239 240 241 241 242 243 243 243 243 243 245 246 246 247 246 247 247 246 244 242 240 238 237 236 236 236 238 241 244 248 252 255 259 262 264 266 268 270 271 272 274 276
253 253 252 250 249 247 246 246 246 245 242 242 245 247 250 252 253 254 255 256 257 259 261 263 262 258 255 251 250 249 246 245 245 245 244 242 240 238 238 238 240 241 241 240 240 242 242 243 243 243 244 244 244 245 246 247 248 248 248 248 248 246 245 244 243 243 240 239 238 239 241 244 247 252 256 259 262 265 266 267 269 270 270 271 273
248 247 249 248 245 243 240 241 242 242 241 241 244 246 248 250 251 253 255 258 258 258 260 263 264 263 261 258 255 255 255 253 253 252 249 247 245 242 240 240 240 240 240 239 239 240 243 244 244 245 245 245 245 245 246 247 247 248 248 250 250 248 248 247 247 247 246 244 242 243 243 245 249 253 256 260 263 265 266 267 268 269 270 271 272
244 244 247 245 239 235 232 234 237 238 240 241 244 246 248 249 250 251 253 256 259 259 259 260 262 262 263 262 259 257 258 256 255 255 254 251 249 246 242 241 242 242 240 238 237 238 241 244 245 246 246 246 246 246 246 247 247 248 249 250 251 251 250 249 249 250 250 249 247 247 247 249 253 257 259 262 264 265 267 268 268 269 270 271 272
247 247 246 242 238 231 227 228 231 235 238 241 244 246 248 250 251 251 252 255 258 259 258 257 258 260 261 260 257 255 255 256 257 258 257 255 252 249 246 242 241 243 243 240 236 235 237 241 244 246 248 247 246 246 247 248 248 248 249 250 252 253 253 252 252 253 254 254 252 252 252 254 259 263 264 264 264 265 265 267 269 270 271 272 272
253 252 245 240 237 229 225 224 225 230 235 239 243 245 247 249 251 252 254 255 256 255 253 253 256 259 260 257 253 250 251 255 258 260 260 259 257 254 249 245 241 242 245 245 239 235 234 237 240 243 246 247 246 246 247 247 248 247 248 249 251 253 254 254 254 256 257 258 256 256 257 259 263 267 268 267 265 264 265 266 268 270 272 272 272
256 256 249 242 235 226 224 221 216 222 229 233 237 241 244 246 250 252 254 256 255 252 249 249 252 255 258 257 253 248 248 252 256 259 259 260 260 258 254 248 242 240 244 247 244 239 235 235 237 240 242 244 245 246 246 246 247 247 247 248 249 251 253 254 255 256 258 260 260 260 262 264 267 269 269 268 266 265 265 267 269 271 272 273 273
253 252 250 246 236 226 223 219 215 219 227 231 232 236 242 244 246 249 254 255 254 251 248 247 248 250 254 255 254 251 249 251 253 256 258 258 259 259 257 253 246 242 244 248 248 246 241 237 236 237 239 241 243 245 247 247 247 247 248 248 248 250 252 253 254 256 259 261 262 263 264 265 267 268 268 268 267 266 267 269 271 272 272 272 272
251 244 243 242 235 230 225 221 219 221 230 236 234 234 241 243 245 248 253 255 253 250 248 247 247 247 249 251 252 252 251 250 249 251 254 255 257 259 257 255 252 248 247 250 252 252 249 242 238 236 236 238 241 244 246 248 248 249 249 250 249 249 251 252 253 255 258 260 261 262 263 265 266 266 267 267 267 267 268 270 272 273 272 271 271
249 242 236 233 230 230 228 226 224 226 234 239 237 237 241 243 246 248 251 253 251 249 247 246 246 246 246 248 251 251 250 250 249 248 248 250 254 256 256 254 252 251 252 254 256 256 254 248 241 236 235 236 239 242 244 247 249 250 250 251 251 250 251 252 252 253 255 258 260 262 263 265 266 265 265 266 267 268 270 271 272 272 272 271 270
246 242 236 232 229 227 227 226 226 230 236 238 237 239 241 243 245 247 249 250 250 249 248 246 245 245 245 248 251 251 251 253 254 249 243 244 248 249 250 250 250 251 254 258 260 259 258 254 245 238 235 235 237 239 242 245 248 250 250 250 251 251 251 251 251 252 253 255 258 261 262 264 264 264 265 266 267 269 270 271 271 272 272 271 270
245 242 239 235 232 229 228 227 227 230 233 235 237 239 241 243 245 247 248 249 250 251 250 247 245 245 246 249 251 251 252 255 257 253 245 243 245 247 248 248 250 253 254 258 263 265 264 260 252 242 237 235 236 238 240 243 245 247 247 248 249 250 251 251 251 252 253 254 256 258 260 261 262 263 264 266 268 269 270 271 271 272 272 272 271
245 244 242 240 236 232 230 230 229 231 232 234 236 238 241 243 244 246 247 248 249 250 250 248 247 248 249 251 252 252 253 253 254 251 248 247 246 249 253 250 249 253 255 256 260 265 270 269 260 249 241 237 236 238 239 241 243 244 245 246 248 250 251 251 252 252 252 252 254 256 258 259 260 261 263 265 267 268 270 271 272 272 272 273 273
244 245 245 245 242 238 235 233 232 232 233 235 237 239 241 243 244 246 247 249 249 249 249 249 249 250 252 253 254 254 253 252 250 248 248 250 250 251 255 252 248 249 252 255 258 263 271 272 266 259 250 242 238 239 240 240 241 242 243 245 247 248 250 251 251 251 250 249 251 253 255 257 260 261 263 265 267 268 269 270 271 271 272 272 272
249 246 246 247 247 245 242 239 237 236 235 236 237 240 242 245 246 247 249 250 250 250 250 250 251 251 252 254 254 254 253 251 251 251 249 251 253 252 251 249 247 247 248 251 254 255 259 262 258 257 255 247 242 241 241 241 241 241 242 244 246 248 249 250 250 250 250 250 251 252 254 255 257 259 261 264 266 268 269 269 270 270 270 270 270
258 250 247 248 248 248 247 245 244 241 239 239 239 240 241 243 244 246 247 248 250 252 251 251 252 252 253 254 255 255 254 253 252 253 252 252 254 251 247 246 249 250 248 247 247 244 251 262 258 252 255 255 250 247 245 243 242 242 243 244 246 248 249 250 250 250 251 252 253 253 254 255 255 257 259 262 265 267 268 268 268 268 267 267 268
264 257 251 249 248 249 248 246 246 245 243 242 242 242 242 243 244 245 247 249 250 253 253 253 253 252 253 254 256 256 255 255 254 254 254 254 253 251 249 250 251 251 247 246 248 246 250 265 266 253 254 258 258 257 251 245 243 244 245 246 247 249 250 252 252 251 251 251 252 252 253 254 255 256 259 261 263 264 265 265 265 265 265 265 265
265 258 252 249 248 247 248 248 248 247 246 245 245 246 247 247 248 249 250 251 253 254 254 254 254 253 252 253 255 256 255 254 253 252 253 253 252 250 250 251 250 248 245 246 251 250 250 258 264 258 254 255 259 261 257 249 246 245 246 247 248 249 251 253 254 254 253 250 249 250 253 254 255 257 259 260 261 262 263 264 265 265 265 266 266
265 259 250 246 245 246 248 251 252 251 251 250 250 250 251 252 253 254 255 255 256 257 257 257 256 255 253 252 251 253 253 253 252 252 252 253 251 249 249 249 250 250 250 252 254 254 252 255 260 260 257 260 266 269 265 258 251 248 248 249 250 250 252 255 255 256 256 254 251 250 252 254 256 257 258 260 262 263 264 264 265 266 267 270 271
264 259 250 242 239 239 244 249 253 254 254 253 254 254 254 255 256 256 257 257 258 258 258 258 258 258 256 252 249 250 251 251 251 251 252 253 252 250 249 250 252 254 256 259 260 258 256 256 257 255 254 262 267 266 264 262 259 253 250 252 254 253 252 254 256 256 256 257 256 254 254 256 257 258 258 260 262 262 263 265 265 266 267 269 270
264 261 253 244 236 233 234 242 248 252 254 254 255 255 256 257 257 258 258 258 257 257 257 258 258 258 257 255 252 251 251 250 250 249 250 251 251 250 250 250 253 255 258 261 262 261 258 258 258 256 257 262 264 262 261 261 261 258 252 251 254 254 251 251 254 255 255 256 257 257 258 258 259 259 259 262 263 262 262 262 263 264 265 266 268
265 264 257 248 241 235 231 235 241 247 253 257 257 257 257 258 259 261 261 261 260 260 259 259 259 259 258 256 255 252 252 251 251 250 250 250 251 251 252 253 254 256 258 261 262 263 261 260 260 259 260 261 262 262 261 260 259 258 255 250 250 253 253 251 253 257 257 256 256 258 260 260 261 262 260 260 262 262 261 261 261 262 264 266 266
264 264 260 251 243 240 238 238 240 243 248 254 260 261 261 261 262 263 264 264 264 264 263 263 262 261 260 258 256 253 252 251 251 252 252 252 252 252 254 255 257 258 259 259 261 262 262 261 260 259 259 259 259 259 258 258 257 255 253 250 246 248 251 251 252 256 256 254 251 252 256 257 259 261 261 259 259 260 261 261 262 262 263 264 265
266 265 264 257 248 243 242 243 243 244 245 247 251 256 260 264 265 266 267 268 268 268 268 268 266 265 264 262 260 257 254 252 252 253 253 254 254 254 255 255 257 258 257 255 256 257 258 258 258 258 257 257 257 256 256 255 255 253 251 250 247 245 245 246 246 248 250 251 248 247 250 252 254 257 260 260 260 260 261 263 264 263 263 264 265
271 268 269 267 261 254 248 247 247 248 250 250 251 252 255 260 264 267 270 271 272 273 273 273 272 271 269 267 265 263 260 257 256 255 256 257 257 257 257 256 256 256 254 251 250 251 253 254 255 256 256 256 255 255 255 255 254 252 248 246 246 244 243 244 246 249 253 255 253 250 250 250 251 254 258 261 262 262 263 264 264 264 264 265 265
275 273 274 274 270 266 260 255 252 250 251 252 256 259 261 264 265 267 269 271 273 276 277 278 277 276 275 272 270 267 265 263 261 260 260 260 261 260 260 259 257 256 255 252 249 248 249 250 251 252 253 253 253 253 254 255 256 254 249 247 248 248 246 245 247 252 256 257 255 255 255 254 254 255 258 261 262 262 263 262 262 262 263 265 266
278 277 277 277 275 271 267 262 257 254 253 251 253 257 262 267 268 269 270 271 273 275 277 280 280 279 277 275 273 271 269 268 266 265 264 265 265 265 264 263 261 258 257 256 252 249 250 251 251 251 250 250 251 251 252 254 255 256 253 250 250 252 252 250 249 250 251 252 252 254 256 257 258 259 261 263 263 262 260 260 260 261 263 265 266
279 278 278 276 274 272 269 266 264 264 265 264 262 261 261 264 267 270 271 272 273 273 274 275 276 276 276 274 273 271 269 269 268 268 266 266 265 265 265 264 262 259 259 259 257 253 252 254 254 254 252 252 251 251 252 253 255 256 255 254 253 253 255 256 255 254 253 252 251 251 253 254 256 257 257 258 258 258 258 259 260 262 263 265 265
275 276 277 274 271 270 268 268 268 270 274 277 277 274 271 269 268 271 274 276 276 277 276 274 272 271 271 271 270 268 267 266 266 266 266 266 264 263 263 262 261 259 258 259 259 257 254 255 258 260 260 260 259 258 257 256 257 257 257 257 256 256 256 257 258 259 260 260 259 257 257 257 257 256 255 254 253 254 256 258 260 262 263 264 265
271 272 273 274 273 272 272 271 271 272 275 278 279 280 279 277 275 273 275 278 280 281 280 277 276 274 271 269 267 266 265 263 262 261 261 262 262 261 261 260 260 259 257 257 258 258 256 253 253 256 258 260 261 263 265 265 265 265 265 264 262 261 260 260 260 261 262 264 265 266 266 267 267 266 263 261 260 259 259 260 261 262 262 263 264
273 272 271 274 275 275 275 274 274 274 276 279 279 277 278 281 280 276 274 276 278 281 281 280 278 277 275 272 269 267 265 264 263 262 260 260 260 260 260 260 260 259 258 256 256 257 257 256 254 253 253 254 255 257 260 262 263 265 266 268 268 268 266 265 264 264 264 265 266 268 270 271 272 272 271 269 266 264 263 263 263 263 262 262 262
274 273 271 274 278 278 277 275 273 274 277 281 283 279 277 278 279 278 276 275 275 276 278 279 279 278 277 275 273 271 268 264 263 262 261 260 260 260 261 261 262 262 262 262 261 260 261 261 260 259 258 257 256 255 256 257 258 259 260 262 264 266 268 268 268 268 267 267 267 267 267 267 267 268 267 267 266 264 263 262 262 262 262 262 261
274 273 271 273 275 275 275 274 274 276 278 281 283 282 278 274 272 273 274 274 274 273 274 276 277 277 276 274 273 272 271 268 264 261 258 257 257 257 257 258 259 261 262 263 264 265 266 266 266 266 266 265 264 263 262 262 261 261 261 261 261 262 263 265 267 268 268 268 268 268 268 267 266 266 265 264 264 264 263 263 263 262 262 262 262
274 271 268 267 265 262 267 272 273 274 276 278 282 284 280 273 269 269 270 271 272 272 272 272 274 276 276 274 272 269 268 268 265 263 260 258 257 256 256 256 256 256 257 258 259 261 262 264 265 266 268 269 270 269 269 268 268 267 266 265 265 265 264 263 263 264 265 266 266 266 267 267 268 268 268 267 266 265 265 264 264 264 263 263 262
272 271 263 260 261 264 271 275 275 273 272 275 280 283 281 274 269 268 270 271 271 271 272 272 271 271 272 272 272 270 267 265 263 263 263 261 259 258 257 257 257 257 257 258 259 260 262 264 266 268 270 271 272 272 271 272 272 273 272 271 270 270 269 269 267 266 266 266 266 266 266 266 267 267 268 268 268 267 266 266 265 265 265 264 263
269 270 265 263 266 274 277 277 279 278 277 279 280 281 281 275 269 269 271 273 273 271 272 273 272 269 268 267 267 267 267 265 263 263 262 262 261 260 260 260 259 259 260 261 263 264 265 266 268 270 273 274 275 275 273 273 272 273 274 275 276 275 274 274 273 272 271 270 270 269 269 268 268 268 268 268 268 268 268 268 267 266 266 265 265
267 268 271 268 266 270 274 276 280 282 281 282 280 279 280 277 272 272 274 276 275 272 272 275 274 271 268 267 266 265 264 263 262 261 260 259 259 259 260 261 262 262 262 263 264 265 267 267 268 270 272 275 276 276 276 276 274 273 273 273 275 276 277 276 276 275 274 274 273 273 273 273 272 272 271 271 270 270 270 270 269 268 267 266 265
267 268 269 266 264 271 277 279 280 280 279 279 277 275 275 274 273 274 276 277 275 273 274 277 276 273 270 268 267 267 265 262 260 260 259 259 258 257 257 259 261 262 263 264 265 266 268 269 269 270 271 274 275 276 276 276 275 274 273 273 272 273 274 275 276 276 275 274 273 274 274 274 273 273 273 273 273 272 272 271 271 270 269 268 267
270 267 265 266 272 278 281 280 280 280 279 278 277 275 273 272 272 272 273 274 274 273 275 277 278 277 274 271 269 269 267 263 259 259 259 260 260 259 258 259 260 261 262 264 265 268 271 273 273 272 272 272 273 274 275 274 274 273 272 273 272 271 272 272 273 274 275 274 273 273 274 274 273 273 273 273 273 272 272 271 271 271 271 270 269
269 267 269 275 280 283 282 282 282 281 279 276 274 273 272 271 271 270 270 271 271 271 272 273 273 273 272 272 272 271 269 265 261 259 260 261 263 262 259 258 259 260 261 262 264 268 273 275 275 274 273 272 272 273 272 271 271 271 271 271 271 271 271 270 270 271 273 273 272 272 273 274 274 273 273 273 273 272 271 270 270 269 269 269 269
274 274 277 281 284 283 282 281 281 280 278 276 274 272 271 269 269 268 268 268 268 268 268 269 269 267 267 269 271 273 273 270 266 264 261 262 263 263 261 258 257 258 259 259 263 270 274 275 275 275 275 273 272 272 272 270 269 270 270 271 271 270 270 269 268 268 269 271 272 271 271 272 273 273 273 273 272 272 271 271 270 269 268 268 267
278 279 280 281 281 280 279 278 279 279 278 276 276 275 273 271 268 266 266 266 265 265 265 265 266 266 266 266 268 269 269 268 267 266 264 263 263 263 260 258 256 258 259 261 266 272 275 276 276 275 275 275 274 273 272 271 270 269 270 271 271 271 270 269 268 267 266 268 270 270 270 271 272 272 272 272 271 271 270 270 270 270 269 268 267
277 277 277 277 277 277 278 279 280 280 278 276 276 277 276 273 271 268 265 264 263 263 263 263 264 265 266 266 267 267 266 266 266 266 265 265 265 263 260 258 258 261 264 267 269 273 275 276 276 275 275 276 275 273 271 271 271 271 271 271 270 270 271 270 269 268 266 267 267 268 268 269 270 271 271 271 270 270 269 268 268 268 268 268 267
275 275 274 274 275 277 279 280 281 281 280 279 279 279 279 275 272 270 268 266 264 263 262 263 263 264 265 266 266 266 266 266 266 266 266 266 265 264 262 261 262 263 266 268 271 273 275 275 275 274 274 274 273 272 271 271 272 272 272 271 270 269 269 269 269 268 268 268 268 268 267 267 268 269 269 268 268 267 267 266 266 266 266 266 266
273 273 273 274 275 277 279 280 281 281 281 280 281 282 281 278 273 271 269 268 267 266 264 263 263 263 263 264 265 266 266 266 266 266 266 266 266 266 266 266 266 267 268 270 271 273 273 273 273 273 273 272 272 271 271 271 271 272 272 271 270 269 268 267 267 267 268 268 269 269 268 267 267 267 267 266 265 264 265 264 264 264 263 263 263
270 271 271 272 274 277 279 279 279 279 279 280 280 282 282 279 275 272 270 269 268 268 267 266 265 264 264 264 265 265 266 267 267 267 267 268 268 269 269 269 269 269 269 270 270 271 271 271 271 271 271 271 270 270 270 270 270 270 270 270 269 269 268 267 266 265 266 267 268 268 268 267 267 266 266 265 264 263 263 262 262 262 262 262 262
269 269 269 271 275 278 278 277 276 277 277 278 279 280 281 279 277 275 273 271 269 268 268 267 267 266 265 265 265 265 266 267 268 268 269 269 270 270 270 270 270 270 270 269 269 269 269 269 270 270 270 270 270 270 270 270 270 270 270 269 269 269 269 268 267 266 265 266 266 267 267 267 266 266 265 264 264 263 262 262 262 262 261 261 261
269 269 271 274 277 278 276 275 274 274 275 276 277 277 278 278 278 277 276 274 273 272 271 270 269 268 267 266 266 266 266 267 267 268 268 269 270 270 271 271 272 272 272 271 270 270 270 270 270 271 271 271 271 271 270 270 270 270 270 269 269 269 269 269 268 267 266 266 266 266 266 266 266 266 265 264 263 262 262 262 262 262 261 261 260
Height
5791 5791 5791 5791 5792 5792 5792 5792 5793 5794 5794 5795 5796 5797 5797 5798 5799 5799 5799 5799 5799 5799 5799 5800 5800 5801 5802 5804 5806 5807 5808 5808 5808 5809 5809 5809 5809 5810 5811 5812 5813 5815 5816 5817 5818 5820 5821 5822 5824 5825 5826 5827 5828 5829 5830 5831 5832 5833 5833 5834 5835 5835 5836 5837 5838 5838 5839 5840 5840 5841 5842 5842 5843 5843 5843 5844 5844 5844 5845 5845 5845 5845 5845 5845 5845
5789 5788 5789 5789 5789 5789 5790 5790 5791 5792 5792 5793 5794 5795 5796 5796 5797 5797 5797 5797 5797 5797 5798 5798 5799 5799 5800 5802 5804 5805 5806 5806 5806 5806 5806 5807 5807 5808 5809 5810 5811 5812 5813 5815 5816 5817 5818 5820 5821 5823 5824 5825 5826 5827 5828 5829 5830 5831 5832 5832 5833 5834 5834 5835 5836 5837 5837 5838 5839 5840 5841 5841 5841 5842 5842 5843 5843 5843 5843 5844 5844 5844 5845 5845 5845
5786 5786 5786 5787 5787 5787 5788 5788 5789 5790 5791 5791 5792 5793 5794 5794 5795 5795 5795 5795 5795 5796 5796 5796 5797 5798 5798 5800 5801 5802 5803 5803 5803 5803 5804 5804 5805 5805 5806 5807 5809 5810 5811 5812 5813 5814 5816 5817 5818 5820 5821 5823 5824 5825 5826 5827 5828 5829 5830 5831 5831 5832 5832 5833 5834 5835 5836 5837 5837 5838 5839 5840 5840 5841 5841 5841 5842 5842 5842 5843 5843 5843 5843 5844 5844
5784 5784 5784 5784 5785 5785 5786 5787 5787 5788 5789 5790 5791 5791 5792 5792 5793 5793 5793 5793 5794 5794 5794 5795 5795 5796 5796 5797 5798 5799 5800 5800 5801 5801 5802 5802 5802 5803 5804 5805 5806 5807 5808 5810 5810 5812 5813 5814 5816 5817 5819 5820 5822 5823 5824 5825 5826 5827 5828 5829 5829 5830 5830 5831 5832 5833 5834 5835 5836 5837 5837 5838 5839 5839 5840 5840 5840 5841 5841 5841 5842 5842 5842 5842 5843
5782 5781 5782 5782 5783 5783 5784 5785 5785 5786 5787 5788 5789 5789 5790 5790 5791 5791 5791 5791 5792 5792 5793 5793 5793 5794 5794 5795 5796 5796 5797 5798 5798 5799 5799 5800 5800 5801 5802 5802 5803 5804 5806 5807 5808 5809 5811 5812 5813 5814 5816 5818 5819 5820 5822 5823 5824 5825 5826 5827 5827 5828 5829 5829 5830 5831 5832 5833 5834 5835 5836 5837 5837 5838 5838 5838 5839 5839 5839 5840 5840 5840 5841 5841 5841
5780 5780 5780 5780 5781 5781 5782 5783 5784 5784 5785 5786 5787 5787 5788 5788 5789 5789 5789 5789 5790 5791 5791 5791 5791 5792 5793 5793 5794 5795 5796 5796 5797 5797 5797 5797 5798 5799 5800 5800 5800 5801 5802 5803 5805 5807 5808 5810 5811 5812 5813 5815 5816 5817 5819 5820 5821 5823 5824 5825 5825 5826 5827 5827 5828 5829 5830 5832 5833 5834 5835 5835 5836 5836 5836 5837 5837 5837 5838 5838 5838 5839 5839 5839 5840
5778 5778 5778 5778 5779 5779 5780 5781 5782 5783 5784 5785 5785 5785 5786 5786 5787 5787 5787 5787 5787 5788 5789 5789 5789 5790 5791 5792 5792 5793 5794 5794 5795 5795 5795 5796 5796 5797 5797 5798 5798 5798 5799 5800 5802 5804 5806 5807 5809 5809 5810 5812 5813 5814 5816 5817 5818 5820 5821 5822 5823 5824 5825 5825 5826 5827 5828 5829 5831 5832 5833 5834 5834 5834 5835 5835 5835 5836 5836 5836 5837 5837 5837 5838 5838
5777 5776 5777 5777 5777 5777 5778 5778 5780 5781 5782 5783 5783 5783 5784 5784 5785 5785 5785 5785 5786 5786 5787 5787 5787 5788 5789 5790 5791 5791 5792 5792 5792 5793 5793 5793 5794 5794 5794 5795 5795 5795 5796 5797 5799 5801 5803 5804 5806 5807 5807 5809 5810 5811 5812 5814 5815 5817 5819 5820 5821 5822 5823 5823 5824 5825 5826 5827 5828 5829 5831 5832 5832 5832 5833 5833 5833 5834 5834 5834 5835 5835 5835 5836 5836
5776 5775 5776 5776 5775 5776 5776 5776 5777 5778 5779 5780 5781 5781 5782 5782 5783 5784 5784 5784 5784 5784 5785 5785 5785 5786 5787 5788 5789 5789 5790 5790 5790 5790 5791 5791 5791 5791 5792 5792 5793 5793 5794 5795 5796 5797 5799 5800 5802 5803 5804 5805 5807 5808 5809 5810 5812 5814 5815 5817 5818 5819 5820 5821 5822 5823 5824 5825 5826 5827 5828 5829 5830 5830 5830 5831 5831 5831 5832 5832 5833 5833 5833 5833 5834
5775 5775 5775 5774 5774 5775 5775 5775 5775 5776 5777 5777 5778 5778 5779 5780 5781 5782 5782 5782 5783 5783 5783 5783 5783 5784 5784 5785 5786 5787 5788 5788 5788 5788 5788 5788 5788 5789 5789 5789 5790 5790 5791 5792 5793 5794 5795 5796 5798 5800 5801 5802 5803 5804 5806 5807 5808 5810 5811 5813 5814 5816 5817 5818 5819 5820 5821 5822 5823 5824 5825 5826 5827 5828 5828 5828 5828 5829 5829 5830 5830 5831 5831 5831 5831
5774 5774 5774 5773 5774 5774 5773 5773 5774 5774 5774 5774 5776 5777 5777 5778 5779 5780 5780 5781 5781 5781 5781 5781 5782 5782 5782 5783 5784 5785 5786 5786 5786 5786 5786 5786 5786 5786 5787 5787 5787 5787 5788 5789 5790 5791 5792 5793 5794 5796 5797 5799 5800 5801 5802 5804 5805 5806 5808 5809 5811 5812 5814 5815 5816 5817 5818 5819 5820 5821 5822 5823 5824 5824 5825 5825 5825 5826 5827 5827 5828 5828 5828 5828 5829
5773 5773 5773 5772 5772 5772 5771 5772 5772 5772 5772 5773 5775 5776 5776 5776 5777 5778 5778 5778 5779 5779 5779 5779 5780 5780 5780 5781 5781 5782 5783 5783 5784 5784 5784 5784 5783 5784 5784 5785 5785 5785 5786 5787 5787 5788 5789 5789 5790 5792 5793 5795 5797 5798 5800 5801 5802 5803 5805 5806 5808 5809 5810 5811 5813 5814 5815 5816 5816 5818 5819 5820 5820 5821 5821 5822 5822 5823 5824 5824 5825 5825 5826 5826 5826
5772 5772 5772 5771 5771 5770 5770 5770 5771 5771 5771 5772 5774 5774 5774 5775 5775 5775 5776 5776 5777 5777 5777 5778 5778 5778 5779 5779 5779 5780 5780 5781 5781 5782 5782 5782 5781 5781 5782 5783 5783 5783 5784 5784 5785 5785 5785 5786 5786 5787 5789 5791 5793 5795 5797 5798 5799 5800 5802 5803 5804 5805 5806 5808 5809 5810 5811 5812 5813 5814 5815 5816 5817 5817 5818 5818 5819 5820 5820 5821 5822 5822 5823 5823 5823
5771 5771 5771 5770 5769 5769 5769 5769 5769 5769 5770 5771 5771 5772 5772 5773 5773 5773 5774 5775 5775 5776 5776 5776 5776 5777 5777 5777 5777 5778 5778 5779 5779 5779 5779 5780 5779 5779 5779 5780 5781 5782 5782 5782 5782 5782 5782 5782 5783 5784 5785 5788 5790 5792 5793 5795 5796 5797 5799 5800 5801 5802 5803 5804 5805 5806 5808 5809 5809 5811 5812 5813 5813 5814 5814 5815 5816 5816 5817 5818 5819 5819 5820 5820 5820
5769 5769 5769 5768 5768 5768 5768 5768 5768 5768 5768 5769 5769 5770 5770 5771 5771 5772 5772 5773 5774 5774 5774 5775 5775 5775 5775 5775 5775 5775 5776 5776 5776 5776 5777 5777 5777 5777 5777 5778 5779 5779 5780 5780 5780 5780 5779 5779 5779 5780 5782 5784 5786 5788 5790 5791 5793 5794 5796 5797 5798 5798 5799 5801 5802 5803 5805 5806 5806 5807 5809 5809 5810 5810 5811 5812 5812 5813 5814 5814 5815 5816 5817 5817 5818
5767 5767 5766 5766 5766 5766 5766 5766 5766 5766 5766 5767 5767 5767 5768 5768 5769 5770 5770 5771 5772 5772 5773 5773 5773 5773 5773 5773 5773 5773 5774 5774 5774 5774 5775 5775 5776 5776 5775 5776 5777 5777 5778 5778 5778 5778 5777 5777 5777 5778 5779 5781 5783 5784 5786 5788 5790 5791 5793 5794 5795 5796 5797 5798 5799 5800 5801 5802 5803 5804 5805 5806 5806 5807 5808 5809 5810 5810 5811 5811 5812 5813 5814 5814 5815
5765 5764 5764 5764 5764 5764 5764 5765 5765 5765 5765 5765 5765 5765 5766 5766 5767 5768 5768 5769 5770 5770 5771 5771 5771 5772 5772 5772 5772 5772 5772 5772 5772 5772 5772 5773 5773 5774 5774 5774 5774 5775 5775 5775 5776 5776 5776 5775 5775 5775 5776 5777 5779 5781 5782 5785 5786 5788 5790 5791 5792 5793 5794 5794 5796 5797 5797 5798 5799 5800 5801 5802 5803 5805 5805 5806 5806 5807 5807 5808 5808 5809 5810 5811 5811
5761 5762 5762 5762 5762 5762 5763 5763 5763 5763 5763 5763 5763 5764 5764 5765 5765 5766 5766 5767 5767 5768 5768 5769 5769 5769 5770 5770 5770 5770 5770 5770 5769 5769 5770 5770 5771 5772 5772 5772 5772 5772 5773 5773 5773 5774 5774 5773 5772 5773 5774 5774 5775 5777 5779 5781 5783 5784 5786 5787 5788 5789 5790 5791 5792 5794 5794 5795 5796 5796 5797 5799 5800 5801 5802 5803 5803 5804 5804 5804 5805 5806 5806 5807 5808
5758 5758 5759 5759 5760 5760 5761 5761 5761 5761 5761 5761 5761 5762 5762 5763 5763 5764 5764 5764 5765 5765 5766 5767 5767 5767 5768 5768 5768 5768 5768 5767 5767 5767 5768 5768 5769 5769 5769 5769 5770 5770 5770 5771 5771 5771 5772 5771 5770 5771 5771 5771 5772 5774 5776 5777 5779 5780 5782 5784 5785 5786 5787 5788 5789 5790 5791 5792 5793 5793 5794 5796 5797 5798 5798 5799 5800 5800 5801 5801 5802 5802 5803 5804 5804
5756 5756 5756 5757 5758 5758 5759 5759 5759 5760 5760 5760 5760 5760 5760 5761 5761 5761 5762 5762 5762 5763 5763 5764 5765 5765 5765 5765 5765 5765 5765 5765 5765 5765 5766 5766 5766 5766 5767 5767 5767 5768 5768 5769 5769 5769 5769 5769 5768 5769 5769 5770 5770 5771 5772 5773 5775 5777 5779 5780 5782 5783 5784 5785 5786 5787 5788 5789 5790 5790 5792 5792 5793 5795 5795 5796 5797 5797 5797 5798 5799 5799 5799 5800 5801
5755 5754 5754 5755 5756 5756 5757 5757 5757 5758 5758 5758 5758 5758 5758 5759 5759 5759 5759 5760 5760 5761 5761 5761 5762 5762 5763 5763 5763 5763 5763 5763 5763 5763 5764 5764 5764 5764 5764 5764 5764 5765 5766 5767 5767 5768 5767 5767 5766 5767 5767 5768 5768 5768 5769 5770 5771 5773 5775 5776 5778 5779 5781 5782 5783 5784 5785 5786 5787 5788 5788 5789 5790 5792 5793 5794 5794 5794 5795 5796 5796 5796 5796 5797 5798
5753 5753 5753 5753 5754 5754 5755 5755 5755 5756 5756 5756 5756 5756 5756 5756 5757 5757 5757 5758 5758 5758 5758 5759 5759 5760 5760 5761 5761 5760 5760 5760 5761 5761 5761 5761 5761 5761 5761 5761 5762 5762 5763 5764 5765 5765 5765 5765 5764 5765 5765 5766 5766 5766 5766 5767 5768 5769 5771 5772 5774 5776 5779 5780 5781 5782 5783 5783 5784 5785 5786 5786 5787 5789 5790 5791 5792 5793 5793 5794 5793 5793 5794 5795 5796
5751 5752 5752 5752 5752 5752 5753 5753 5754 5754 5754 5754 5754 5754 5754 5754 5755 5755 5755 5756 5756 5756 5756 5756 5756 5757 5757 5758 5758 5757 5757 5757 5757 5758 5758 5758 5759 5759 5759 5759 5760 5760 5761 5762 5762 5763 5763 5762 5762 5763 5763 5763 5764 5764 5763 5764 5765 5766 5767 5769 5770 5772 5775 5775 5776 5778 5779 5779 5780 5782 5783 5783 5784 5786 5786 5787 5788 5790 5791 5791 5791 5791 5791 5792 5793
5750 5750 5750 5750 5750 5751 5751 5751 5752 5752 5752 5752 5752 5752 5752 5752 5753 5753 5753 5753 5754 5754 5754 5754 5754 5754 5754 5755 5755 5755 5754 5754 5754 5754 5754 5755 5755 5755 5756 5756 5757 5758 5758 5759 5759 5759 5759 5759 5760 5760 5760 5761 5761 5761 5761 5761 5762 5763 5764 5765 5766 5767 5768 5769 5771 5773 5775 5775 5776 5778 5779 5780 5781 5782 5783 5784 5784 5785 5787 5787 5786 5786 5787 5789 5789
5748 5749 5749 5749 5749 5749 5749 5749 5750 5750 5750 5751 5751 5750 5751 5751 5751 5751 5751 5751 5751 5752 5752 5752 5751 5751 5751 5751 5752 5752 5751 5751 5751 5751 5751 5752 5752 5752 5752 5753 5754 5755 5755 5755 5755 5755 5755 5756 5756 5756 5757 5757 5758 5758 5758 5759 5760 5760 5761 5761 5762 5762 5763 5764 5767 5769 5770 5770 5773 5774 5774 5775 5777 5777 5779 5780 5779 5781 5781 5781 5781 5782 5784 5785 5784
5747 5747 5747 5747 5747 5747 5747 5748 5748 5748 5749 5749 5749 5749 5749 5749 5749 5749 5749 5749 5749 5750 5749 5749 5749 5749 5749 5749 5749 5749 5749 5749 5748 5748 5748 5749 5749 5749 5749 5750 5751 5752 5752 5752 5752 5752 5752 5752 5752 5753 5753 5754 5754 5755 5755 5756 5756 5757 5758 5758 5758 5759 5760 5761 5763 5764 5765 5765 5767 5768 5768 5770 5773 5772 5772 5773 5775 5776 5776 5776 5777 5778 5779 5780 5780
5745 5745 5745 5746 5746 5746 5746 5746 5747 5747 5747 5747 5747 5747 5747 5747 5747 5747 5747 5748 5748 5748 5748 5748 5747 5747 5747 5747 5747 5747 5747 5746 5746 5746 5746 5746 5746 5746 5747 5747 5747 5748 5749 5749 5749 5749 5749 5748 5748 5749 5749 5750 5751 5751 5752 5753 5753 5754 5755 5756 5756 5756 5757 5758 5759 5760 5760 5760 5761 5762 5763 5766 5768 5767 5767 5768 5769 5771 5771 5771 5773 5773 5775 5775 5775
5743 5743 5743 5744 5744 5744 5744 5744 5745 5745 5745 5745 5745 5745 5745 5745 5745 5745 5745 5746 5746 5746 5746 5746 5746 5746 5745 5745 5745 5745 5745 5745 5744 5744 5744 5744 5744 5744 5744 5745 5745 5745 5746 5746 5746 5746 5746 5746 5746 5746 5746 5747 5748 5748 5749 5749 5750 5751 5752 5753 5753 5753 5754 5755 5756 5756 5757 5757 5757 5758 5760 5762 5762 5762 5763 5764 5764 5765 5766 5766 5767 5768 5769 5770 5769
5740 5741 5741 5741 5742 5742 5742 5742 5743 5743 5743 5743 5743 5743 5743 5743 5743 5743 5743 5743 5743 5743 5744 5744 5744 5744 5744 5744 5744 5743 5743 5743 5743 5743 5743 5743 5743 5743 5743 5743 5744 5744 5744 5744 5744 5744 5743 5743 5743 5744 5744 5744 5745 5745 5746 5747 5747 5748 5749 5750 5750 5750 5751 5752 5753 5753 5754 5754 5754 5755 5756 5757 5758 5759 5759 5760 5760 5761 5761 5761 5761 5762 5763 5763 5763
5738 5739 5739 5739 5739 5740 5740 5740 5741 5741 5741 5741 5741 5741 5741 5741 5741 5741 5741 5741 5741 5741 5741 5742 5742 5742 5742 5742 5742 5742 5742 5742 5741 5741 5741 5741 5741 5741 5741 5742 5742 5742 5742 5742 5743 5742 5742 5742 5742 5742 5742 5742 5742 5743 5743 5744 5745 5745 5746 5746 5747 5747 5748 5748 5749 5750 5751 5751 5751 5752 5752 5753 5754 5755 5755 5756 5756 5756 5756 5756 5756 5757 5757 5758 5758
5736 5736 5737 5737 5737 5738 5738 5738 5739 5739 5739 5739 5739 5739 5739 5739 5739 5739 5739 5739 5739 5739 5739 5740 5740 5740 5740 5740 5740 5740 5740 5740 5740 5740 5740 5740 5740 5740 5740 5740 5740 5741 5741 5741 5741 5741 5741 5741 5741 5741 5741 5741 5741 5741 5741 5742 5742 5742 5743 5743 5744 5744 5744 5745 5745 5746 5747 5747 5748 5748 5749 5749 5750 5751 5751 5751 5751 5752 5752 5752 5753 5753 5754 5754 5754
5733 5734 5734 5735 5735 5735 5736 5736 5736 5737 5737 5737 5738 5738 5737 5737 5737 5737 5737 5737 5737 5737 5737 5737 5738 5738 5738 5738 5738 5738 5738 5738 5738 5738 5738 5738 5738 5738 5738 5738 5738 5739 5739 5739 5739 5740 5740 5740 5740 5740 5740 5740 5740 5740 5740 5740 5740 5740 5741 5741 5741 5741 5741 5742 5742 5743 5743 5743 5744 5744 5745 5745 5745 5746 5746 5746 5747 5747 5748 5748 5749 5750 5750 5750 5750
5731 5731 5732 5732 5733 5733 5734 5734 5735 5735 5735 5735 5735 5735 5736 5736 5735 5735 5735 5735 5735 5735 5735 5735 5735 5736 5736 5736 5736 5737 5737 5736 5737 5737 5736 5736 5736 5736 5736 5736 5736 5737 5737 5738 5738 5738 5738 5738 5738 5739 5739 5739 5739 5739 5739 5739 5739 5739 5739 5739 5739 5739 5739 5739 5739 5740 5740 5740 5741 5741 5741 5741 5742 5742 5742 5742 5743 5743 5744 5744 5745 5746 5747 5747 5747
5728 5729 5729 5729 5730 5731 5732 5733 5733 5733 5733 5733 5733 5733 5733 5733 5733 5733 5733 5733 5733 5733 5733 5734 5734 5734 5734 5734 5734 5735 5735 5735 5735 5735 5735 5735 5735 5734 5734 5735 5735 5735 5735 5736 5736 5736 5737 5737 5737 5737 5737 5738 5738 5738 5738 5738 5738 5738 5738 5738 5737 5737 5737 5737 5737 5737 5737 5738 5738 5738 5738 5738 5739 5739 5739 5739 5740 5740 5740 5741 5741 5742 5743 5743 5744
5725 5726 5726 5727 5728 5729 5730 5730 5730 5730 5731 5731 5731 5731 5731 5731 5731 5731 5731 5731 5731 5731 5732 5732 5732 5732 5732 5732 5733 5733 5733 5733 5733 5733 5732 5732 5732 5732 5732 5732 5732 5732 5733 5733 5734 5734 5734 5735 5735 5735 5736 5736 5736 5736 5736 5736 5736 5736 5736 5736 5736 5736 5735 5735 5735 5735 5735 5735 5735 5735 5735 5736 5736 5736 5737 5737 5737 5737 5737 5737 5738 5738 5739 5740 5740
5722 5723 5723 5723 5724 5725 5726 5727 5727 5727 5728 5728 5729 5729 5729 5729 5729 5729 5729 5729 5729 5729 5730 5730 5730 5730 5730 5731 5731 5731 5731 5731 5731 5731 5730 5730 5730 5730 5729 5730 5730 5730 5730 5730 5731 5731 5731 5732 5732 5732 5733 5733 5734 5734 5734 5734 5734 5734 5734 5734 5734 5734 5734 5733 5733 5733 5733 5733 5733 5733 5733 5733 5733 5733 5734 5734 5734 5734 5734 5734 5734 5735 5735 5736 5737
5721 5721 5721 5721 5720 5721 5723 5724 5724 5724 5725 5725 5725 5726 5726 5726 5726 5726 5726 5726 5726 5726 5727 5727 5728 5728 5728 5728 5728 5729 5729 5729 5729 5729 5729 5728 5728 5727 5727 5727 5727 5727 5727 5728 5728 5728 5728 5728 5729 5729 5729 5730 5730 5731 5731 5731 5731 5732 5732 5732 5732 5732 5731 5731 5731 5731 5730 5730 5731 5731 5731 5731 5730 5730 5730 5730 5730 5730 5730 5730 5730 5731 5731 5732 5733
5719 5719 5720 5720 5719 5719 5720 5720 5720 5721 5721 5722 5722 5722 5722 5723 5723 5724 5724 5724 5724 5724 5724 5724 5725 5725 5725 5725 5725 5726 5726 5726 5726 5727 5727 5726 5726 5726 5725 5725 5725 5725 5725 5725 5725 5725 5725 5725 5726 5726 5726 5727 5727 5727 5728 5728 5728 5728 5728 5728 5728 5728 5728 5728 5728 5728 5728 5727 5727 5727 5728 5727 5727 5727 5727 5727 5726 5726 5726 5726 5727 5727 5727 5727 5728
5716 5717 5717 5718 5718 5718 5717 5717 5717 5717 5718 5719 5718 5718 5719 5719 5719 5720 5721 5721 5721 5721 5721 5721 5721 5721 5722 5722 5722 5722 5723 5723 5724 5724 5724 5724 5724 5723 5723 5723 5722 5722 5722 5722 5723 5723 5723 5723 5723 5723 5723 5723 5724 5724 5724 5725 5725 5725 5725 5724 5724 5724 5725 5725 5724 5724 5724 5724 5724 5723 5723 5723 5723 5723 5723 5723 5723 5723 5722 5722 5723 5723 5723 5723 5723
5713 5713 5714 5714 5714 5715 5714 5714 5714 5714 5714 5715 5715 5715 5715 5715 5715 5716 5717 5718 5718 5718 5718 5718 5718 5718 5718 5718 5718 5719 5719 5720 5720 5721 5720 5720 5720 5720 5720 5720 5719 5719 5719 5720 5720 5720 5720 5720 5720 5720 5720 5720 5720 5720 5720 5720 5721 5721 5721 5721 5721 5720 5720 5721 5720 5720 5720 5720 5720 5719 5719 5719 5719 5719 5718 5718 5718 5718 5718 5718 5718 5718 5718 5719 5719
5709 5709 5709 5709 5709 5710 5710 5710 5711 5711 5711 5711 5711 5711 5711 5711 5712 5712 5713 5713 5714 5714 5714 5713 5713 5714 5714 5714 5713 5714 5715 5716 5716 5717 5717 5717 5717 5717 5717 5716 5716 5716 5716 5716 5716 5716 5716 5717 5717 5717 5717 5716 5716 5716 5716 5716 5716 5716 5717 5717 5717 5717 5716 5716 5715 5715 5715 5716 5716 5716 5715 5714 5715 5715 5714 5714 5713 5713 5713 5713 5713 5713 5713 5713 5713
5705 5705 5705 5703 5704 5705 5706 5706 5707 5707 5707 5706 5706 5707 5707 5708 5708 5708 5708 5709 5709 5709 5709 5709 5709 5709 5709 5709 5709 5709 5710 5711 5712 5712 5712 5712 5712 5713 5713 5712 5712 5711 5711 5711 5711 5712 5712 5712 5712 5712 5712 5712 5712 5712 5712 5712 5711 5711 5711 5712 5712 5712 5712 5712 5710 5709 5709 5710 5711 5711 5710 5709 5710 5710 5709 5709 5708 5708 5708 5708 5708 5707 5707 5707 5707
5700 5700 5699 5697 5698 5699 5699 5700 5701 5701 5701 5701 5701 5702 5703 5703 5703 5704 5704 5704 5704 5704 5704 5704 5705 5705 5704 5703 5704 5704 5704 5705 5706 5707 5707 5708 5707 5707 5708 5708 5707 5707 5706 5706 5707 5707 5707 5707 5707 5706 5707 5707 5706 5706 5707 5707 5706 5706 5706 5706 5706 5706 5706 5707 5706 5704 5702 5702 5704 5706 5705 5703 5703 5704 5704 5703 5703 5702 5703 5703 5702 5702 5701 5701 5702
5693 5692 5691 5691 5691 5692 5693 5694 5695 5695 5695 5696 5696 5697 5697 5698 5698 5699 5699 5699 5699 5699 5699 5699 5700 5700 5699 5699 5698 5698 5698 5699 5699 5700 5701 5702 5702 5702 5702 5703 5703 5702 5701 5701 5702 5702 5702 5701 5701 5701 5701 5701 5701 5700 5700 5700 5700 5700 5700 5700 5700 5701 5700 5700 5700 5699 5696 5695 5696 5699 5700 5698 5696 5697 5698 5696 5696 5696 5696 5696 5696 5695 5695 5696 5696
5687 5686 5686 5687 5687 5688 5689 5689 5690 5690 5690 5690 5690 5691 5691 5692 5692 5693 5694 5694 5694 5694 5694 5694 5694 5694 5694 5694 5693 5693 5693 5693 5693 5694 5695 5695 5695 5696 5697 5698 5698 5696 5695 5695 5696 5696 5696 5695 5695 5694 5694 5694 5694 5693 5693 5693 5693 5693 5693 5693 5693 5693 5693 5693 5694 5693 5691 5689 5689 5691 5693 5691 5689 5690 5691 5689 5689 5690 5690 5689 5689 5688 5689 5689 5689
5682 5682 5683 5683 5683 5684 5684 5685 5685 5685 5684 5684 5685 5685 5685 5686 5686 5687 5688 5688 5688 5688 5688 5688 5688 5688 5688 5687 5687 5687 5687 5688 5688 5688 5688 5688 5688 5689 5690 5691 5692 5690 5689 5689 5689 5689 5689 5688 5688 5687 5687 5687 5686 5686 5685 5685 5685 5685 5685 5685 5685 5684 5685 5685 5685 5685 5683 5682 5682 5683 5685 5684 5681 5682 5683 5681 5680 5681 5682 5682 5681 5681 5681 5681 5681
5677 5678 5678 5679 5679 5679 5679 5679 5679 5679 5679 5679 5679 5679 5679 5680 5680 5681 5681 5681 5682 5682 5682 5682 5682 5682 5682 5681 5681 5681 5681 5681 5681 5681 5681 5681 5681 5682 5682 5683 5683 5683 5682 5682 5682 5681 5681 5680 5679 5679 5679 5679 5678 5677 5677 5676 5676 5676 5676 5676 5676 5676 5676 5677 5676 5675 5674 5673 5673 5674 5677 5676 5673 5674 5675 5674 5673 5673 5672 5673 5673 5673 5673 5673 5673
5672 5673 5673 5673 5673 5673 5673 5673 5673 5673 5672 5672 5672 5672 5673 5673 5674 5674 5674 5674 5675 5675 5675 5676 5676 5676 5676 5675 5675 5675 5675 5675 5675 5675 5675 5674 5674 5675 5675 5675 5675 5674 5674 5674 5673 5673 5673 5672 5671 5670 5670 5670 5669 5669 5668 5667 5667 5667 5667 5667 5666 5666 5667 5668 5668 5666 5664 5663 5663 5663 5666 5667 5665 5665 5666 5665 5665 5665 5664 5664 5663 5664 5665 5665 5665
5666 5666 5666 5667 5667 5667 5667 5667 5667 5666 5666 5666 5666 5666 5666 5666 5667 5667 5667 5668 5668 5668 5668 5669 5669 5669 5669 5669 5669 5668 5668 5668 5668 5668 5668 5667 5667 5667 5667 5667 5667 5666 5666 5666 5665 5665 5664 5663 5663 5662 5661 5661 5660 5660 5659 5658 5658 5658 5658 5657 5656 5656 5657 5657 5658 5658 5656 5654 5653 5652 5654 5656 5656 5656 5656 5656 5656 5656 5656 5655 5654 5655 5655 5656 5656
5660 5660 5660 5661 5661 5661 5661 5661 5661 5660 5660 5659 5659 5659 5659 5659 5660 5660 5661 5661 5662 5662 5662 5662 5662 5662 5662 5662 5662 5662 5662 5661 5661 5661 5660 5660 5660 5659 5659 5659 5658 5658 5658 5657 5657 5656 5655 5655 5654 5653 5652 5652 5651 5651 5650 5649 5648 5648 5648 5647 5646 5646 5646 5647 5647 5648 5647 5646 5643 5642 5644 5645 5645 5645 5646 5647 5647 5647 5646 5646 5646 5646 5646 5646 5647
5652 5653 5653 5653 5654 5654 5654 5654 5654 5654 5653 5653 5653 5653 5653 5653 5653 5653 5654 5654 5655 5655 5655 5656 5656 5656 5656 5655 5655 5655 5655 5655 5654 5654 5653 5653 5652 5651 5651 5650 5650 5650 5649 5648 5648 5647 5647 5646 5645 5645 5644 5643 5642 5641 5641 5640 5639 5638 5637 5637 5636 5636 5636 5636 5636 5636 5637 5637 5634 5632 5634 5635 5635 5634 5635 5636 5638 5638 5637 5637 5637 5637 5636 5636 5637